Tracking 25710 objects as of 7-Jul-2022
HD Live streaming from Space Station
objects crossing your sky now

FENGYUN 1C DEB

Track FENGYUN 1C DEB now!
10-day predictions


NORAD ID: 31678
Int'l Code: 1999-025CCL
Perigee: 557.0 km
Apogee: 1,045.8 km
Inclination: 98.9 °
Period: 100.8 minutes
Semi major axis: 7172 km
RCS: 0.0167 m2 (small)
Launch date: May 10, 1999
Source: People's Republic of China (PRC)
Launch site: Taiyaun Space Center, China (TSC)

Note: This is SATELLITE DEBRIS
aabbcc
Your satellite tracking list
Your tracking list is empty




NASA's NSSDC Master Catalog

Two Line Element Set (TLE):
1 31678U 99025CCL 22185.91313500  .00002145  00000-0  46124-3 0  9992
2 31678  98.8842 240.7972 0340746 157.6542 203.9897 14.29234591787629
Source of the keplerian elements: AFSPC